| time (UTC) | temp F | wind direction | speed MPH | gust MPH | rain 1hr in | rain 24hr in | rain mn in | humidity % | barometer mb |
| 20260507201033 | 70 | 259 | 3.0 | 4.0 | 0.00 | 0.40 | 0.40 | 33 | 1010.6 |
| 20260507200529 | 69 | 24 | 3.0 | 7.0 | 0.00 | 0.40 | 0.40 | 34 | 1010.5 |
| 20260507200025 | 68 | 263 | 4.0 | 8.0 | 0.00 | 0.40 | 0.40 | 35 | 1010.6 |
| 20260507195522 | 67 | 284 | 2.0 | 9.0 | 0.00 | 0.40 | 0.40 | 37 | 1010.5 |
| 20260507195020 | 67 | 260 | 9.0 | 11.0 | 0.00 | 0.40 | 0.40 | 37 | 1010.6 |
| 20260507194516 | 68 | 293 | 3.0 | 8.0 | 0.00 | 0.40 | 0.40 | 36 | 1010.7 |
| 20260507194012 | 68 | 329 | 4.0 | 4.0 | 0.00 | 0.40 | 0.40 | 34 | 1010.4 |
| 20260507193509 | 68 | 22 | 2.0 | 6.0 | 0.00 | 0.40 | 0.40 | 36 | 1010.5 |
| 20260507193006 | 69 | 259 | 6.0 | 9.0 | 0.00 | 0.40 | 0.40 | 34 | 1010.9 |
| 20260507192502 | 68 | 278 | 5.0 | 6.0 | 0.00 | 0.40 | 0.40 | 35 | 1010.9 |
| 20260507191959 | 69 | 286 | 8.0 | 13.0 | 0.00 | 0.40 | 0.40 | 30 | 1010.8 |
| 20260507191454 | 68 | 220 | 3.0 | 7.0 | 0.00 | 0.40 | 0.40 | 36 | 1010.6 |
| 20260507190952 | 68 | 323 | 6.0 | 13.0 | 0.00 | 0.40 | 0.40 | 36 | 1010.6 |
| 20260507190449 | 68 | 114 | 1.0 | 3.0 | 0.00 | 0.40 | 0.40 | 38 | 1010.6 |
| 20260507185948 | 68 | 31 | 0.0 | 3.0 | 0.00 | 0.40 | 0.40 | 35 | 1010.8 |
| 20260507185445 | 68 | 277 | 4.0 | 8.0 | 0.00 | 0.40 | 0.40 | 34 | 1011.0 |
| 20260507184941 | 68 | 294 | 2.0 | 8.0 | 0.00 | 0.40 | 0.40 | 37 | 1010.9 |
| 20260507184440 | 68 | 274 | 4.0 | 9.0 | 0.00 | 0.40 | 0.40 | 31 | 1011.0 |
| 20260507183937 | 67 | 282 | 3.0 | 6.0 | 0.00 | 0.40 | 0.40 | 33 | 1010.9 |
| 20260507183434 | 68 | 300 | 3.0 | 4.0 | 0.00 | 0.40 | 0.40 | 32 | 1010.9 |
| 20260507182931 | 68 | 273 | 1.0 | 3.0 | 0.00 | 0.40 | 0.40 | 35 | 1010.8 |
| 20260507182427 | 69 | 283 | 4.0 | 6.0 | 0.00 | 0.40 | 0.40 | 34 | 1011.0 |
| 20260507181923 | 67 | 351 | 3.0 | 4.0 | 0.00 | 0.40 | 0.40 | 37 | 1010.9 |
| 20260507181419 | 67 | 263 | 3.0 | 6.0 | 0.00 | 0.40 | 0.40 | 40 | 1010.8 |
| 20260507180916 | 67 | 230 | 5.0 | 9.0 | 0.00 | 0.40 | 0.40 | 34 | 1011.2 |
| 20260507180413 | 68 | 286 | 8.0 | 11.0 | 0.00 | 0.40 | 0.40 | 35 | 1011.0 |
| 20260507175909 | 68 | 195 | 2.0 | 9.0 | 0.00 | 0.40 | 0.40 | 34 | 1011.0 |
| 20260507175406 | 68 | 308 | 2.0 | 4.0 | 0.00 | 0.40 | 0.40 | 37 | 1011.2 |
| 20260507174903 | 67 | 14 | 3.0 | 6.0 | 0.00 | 0.40 | 0.40 | 37 | 1011.2 |
| 20260507174401 | 67 | 316 | 4.0 | 4.0 | 0.00 | 0.40 | 0.40 | 40 | 1011.4 |
| 20260507173858 | 68 | 204 | 2.0 | 3.0 | 0.00 | 0.40 | 0.40 | 32 | 1011.6 |
| 20260507173355 | 67 | 261 | 1.0 | 3.0 | 0.00 | 0.40 | 0.40 | 36 | 1011.6 |
| 20260507172851 | 66 | 270 | 4.0 | 9.0 | 0.00 | 0.40 | 0.40 | 40 | 1011.7 |
| 20260507172348 | 66 | 243 | 6.0 | 8.0 | 0.00 | 0.40 | 0.40 | 36 | 1011.7 |
| 20260507171844 | 66 | 337 | 2.0 | 7.0 | 0.00 | 0.40 | 0.40 | 44 | 1011.6 |
| 20260507171341 | 67 | 311 | 5.0 | 7.0 | 0.00 | 0.40 | 0.40 | 37 | 1011.6 |
| 20260507170838 | 65 | 308 | 2.0 | 8.0 | 0.00 | 0.40 | 0.40 | 42 | 1011.9 |
| 20260507170334 | 66 | 349 | 3.0 | 6.0 | 0.00 | 0.40 | 0.40 | 37 | 1012.0 |
| 20260507165830 | 65 | 244 | 4.0 | 6.0 | 0.00 | 0.40 | 0.40 | 39 | 1012.2 |
| 20260507165326 | 66 | 228 | 3.0 | 4.0 | 0.00 | 0.40 | 0.40 | 35 | 1012.3 |
| 20260507164823 | 65 | 165 | 6.0 | 7.0 | 0.00 | 0.40 | 0.40 | 37 | 1012.2 |
| 20260507164320 | 65 | 276 | 2.0 | 4.0 | 0.00 | 0.40 | 0.40 | 37 | 1012.3 |
| 20260507163817 | 65 | 236 | 3.0 | 3.0 | 0.00 | 0.40 | 0.40 | 41 | 1012.6 |
| 20260507163314 | 65 | 267 | 4.0 | 8.0 | 0.00 | 0.40 | 0.40 | 42 | 1012.6 |
| 20260507162810 | 64 | 265 | 5.0 | 7.0 | 0.00 | 0.40 | 0.40 | 38 | 1012.5 |
| 20260507162307 | 64 | 47 | 2.0 | 2.0 | 0.00 | 0.40 | 0.40 | 40 | 1012.6 |
| 20260507161804 | 64 | 14 | 5.0 | 8.0 | 1.44 | 0.40 | 0.40 | 41 | 1012.7 |
| 20260507161300 | 63 | 281 | 4.0 | 6.0 | 1.44 | 0.40 | 0.40 | 44 | 1012.8 |
| 20260507160756 | 63 | 293 | 3.0 | 6.0 | 0.78 | 0.16 | 0.16 | 42 | 1012.8 |
| 20260507160252 | 63 | 338 | 0.0 | 2.0 | 0.97 | 0.16 | 0.16 | 44 | 1012.9 |
| 20260507155748 | 62 | 2 | 6.0 | 10.0 | 0.00 | 0.00 | 0.00 | 40 | 1012.9 |
| 20260507155244 | 62 | 336 | 4.0 | 8.0 | 0.00 | 0.00 | 0.00 | 44 | 1013.0 |
| 20260507154741 | 63 | 327 | 2.0 | 6.0 | 0.00 | 0.00 | 0.00 | 45 | 1013.3 |
| 20260507154239 | 61 | 345 | 2.0 | 3.0 | 0.00 | 0.00 | 0.00 | 44 | 1013.4 |
| 20260507153735 | 61 | 27 | 3.0 | 8.0 | 0.00 | 0.00 | 0.00 | 48 | 1013.3 |
| 20260507153232 | 61 | 2 | 2.0 | 3.0 | 0.00 | 0.00 | 0.00 | 48 | 1013.4 |
| 20260507152728 | 62 | 254 | 3.0 | 4.0 | 0.00 | 0.00 | 0.00 | 43 | 1013.4 |
| 20260507152225 | 61 | 326 | 6.0 | 9.0 | 0.00 | 0.00 | 0.00 | 43 | 1013.6 |
| 20260507151721 | 61 | 26 | 4.0 | 6.0 | 0.00 | 0.00 | 0.00 | 50 | 1013.5 |
| 20260507151218 | 61 | 62 | 1.0 | 2.0 | 0.00 | 0.00 | 0.00 | 45 | 1013.7 |
| 20260507150714 | 59 | 271 | 1.0 | 8.0 | 0.00 | 0.00 | 0.00 | 48 | 1013.9 |
| 20260507150211 | 59 | 338 | 3.0 | 7.0 | 0.00 | 0.00 | 0.00 | 47 | 1014.0 |
| 20260507145707 | 59 | 333 | 3.0 | 6.0 | 0.00 | 0.00 | 0.00 | 54 | 1014.0 |
| 20260507145204 | 59 | 352 | 4.0 | 4.0 | 0.00 | 0.00 | 0.00 | 47 | 1014.0 |
| 20260507144700 | 59 | 28 | 5.0 | 7.0 | 0.00 | 0.00 | 0.00 | 50 | 1014.2 |
| 20260507144159 | 59 | 63 | 2.0 | 4.0 | 0.00 | 0.00 | 0.00 | 48 | 1014.4 |
| 20260507143655 | 59 | 322 | 6.0 | 7.0 | 0.00 | 0.00 | 0.00 | 49 | 1014.4 |
| 20260507143152 | 60 | 336 | 3.0 | 4.0 | 0.00 | 0.00 | 0.00 | 53 | 1014.5 |
| 20260507142648 | 60 | 170 | 0.0 | 2.0 | 0.00 | 0.00 | 0.00 | 47 | 1014.6 |
| 20260507142145 | 59 | 235 | 2.0 | 3.0 | 0.00 | 0.00 | 0.00 | 51 | 1014.5 |
| 20260507141641 | 59 | 267 | 4.0 | 6.0 | 0.00 | 0.00 | 0.00 | 54 | 1014.6 |
| 20260507141138 | 58 | 257 | 1.0 | 3.0 | 0.00 | 0.00 | 0.00 | 54 | 1014.7 |
| 20260507140634 | 58 | 327 | 3.0 | 7.0 | 0.00 | 0.00 | 0.00 | 51 | 1015.0 |
| 20260507140132 | 58 | 256 | 5.0 | 7.0 | 0.00 | 0.00 | 0.00 | 53 | 1015.0 |
| 20260507135629 | 58 | 29 | 5.0 | 7.0 | 0.00 | 0.00 | 0.00 | 48 | 1015.0 |
| 20260507135126 | 57 | 351 | 0.0 | 1.0 | 0.00 | 0.00 | 0.00 | 52 | 1015.1 |
| 20260507134622 | 56 | 136 | 1.0 | 3.0 | 0.00 | 0.00 | 0.00 | 52 | 1015.1 |
| 20260507134119 | 56 | 198 | 4.0 | 4.0 | 0.00 | 0.00 | 0.00 | 60 | 1015.2 |
| 20260507133614 | 56 | 134 | 1.0 | 3.0 | 0.00 | 0.00 | 0.00 | 54 | 1015.1 |
| 20260507133112 | 57 | 158 | 2.0 | 3.0 | 0.00 | 0.00 | 0.00 | 58 | 1015.6 |
| 20260507132609 | 56 | 97 | 1.0 | 2.0 | 0.00 | 0.00 | 0.00 | 57 | 1015.4 |
| 20260507132105 | 54 | 122 | 2.0 | 3.0 | 0.00 | 0.00 | 0.00 | 59 | 1015.4 |
| 20260507131602 | 54 | 139 | 1.0 | 2.0 | 0.00 | 0.00 | 0.00 | 60 | 1015.7 |
| 20260507131100 | 54 | 102 | 1.0 | 3.0 | 0.00 | 0.00 | 0.00 | 59 | 1015.7 |
| 20260507130556 | 53 | 128 | 1.0 | 2.0 | 0.00 | 0.00 | 0.00 | 62 | 1015.7 |
| 20260507130054 | 53 | 152 | 1.0 | 3.0 | 0.00 | 0.00 | 0.00 | 64 | 1015.9 |
| 20260507125553 | 53 | 216 | 0.0 | 1.0 | 0.00 | 0.00 | 0.00 | 67 | 1015.7 |
| 20260507125050 | 53 | 216 | 2.0 | 2.0 | 0.00 | 0.00 | 0.00 | 67 | 1016.0 |
| 20260507124546 | 53 | 184 | 1.0 | 1.0 | 0.00 | 0.00 | 0.00 | 66 | 1015.9 |
| 20260507124044 | 52 | 184 | 0.0 | 2.0 | 0.00 | 0.00 | 0.00 | 69 | 1015.8 |
| 20260507123542 | 52 | 177 | 1.0 | 1.0 | 0.00 | 0.00 | 0.00 | 68 | 1015.7 |
| 20260507123038 | 52 | 192 | 0.0 | 0.0 | 0.00 | 0.00 | 0.00 | 72 | 1015.9 |
| 20260507122534 | 52 | 179 | 0.0 | 0.0 | 0.00 | 0.00 | 0.00 | 73 | 1015.7 |
| 20260507122030 | 52 | 174 | 0.0 | 0.0 | 0.00 | 0.00 | 0.00 | 73 | 1015.6 |
| 20260507121525 | 52 | 174 | 0.0 | 0.0 | 0.00 | 0.00 | 0.00 | 71 | 1015.7 |
| 20260507121021 | 51 | 141 | 0.0 | 0.0 | 0.00 | 0.00 | 0.00 | 75 | 1015.8 |
| 20260507120518 | 51 | 140 | 0.0 | 0.0 | 0.00 | 0.00 | 0.00 | 76 | 1015.6 |
| 20260507120015 | 51 | 128 | 0.0 | 0.0 | 0.00 | 0.00 | 0.00 | 78 | 1015.4 |
| 20260507115511 | 51 | 11 | 0.0 | 0.0 | 0.00 | 0.00 | 0.00 | 78 | 1015.6 |
| 20260507115007 | 51 | 13 | 0.0 | 0.0 | 0.00 | 0.00 | 0.00 | 78 | 1015.6 |
| 20260507114503 | 51 | 13 | 0.0 | 0.0 | 0.00 | 0.00 | 0.00 | 81 | 1015.3 |
| 20260507114000 | 51 | 13 | 0.0 | 0.0 | 0.00 | 0.00 | 0.00 | 82 | 1015.6 |
| 20260507113458 | 51 | 14 | 0.0 | 0.0 | 0.00 | 0.00 | 0.00 | 83 | 1015.4 |
| 20260507112955 | 50 | 14 | 0.0 | 0.0 | 0.00 | 0.00 | 0.00 | 81 | 1015.6 |
| 20260507112452 | 50 | 16 | 0.0 | 0.0 | 0.00 | 0.00 | 0.00 | 84 | 1015.6 |
| 20260507111949 | 50 | 16 | 0.0 | 0.0 | 0.00 | 0.00 | 0.00 | 82 | 1015.2 |
| 20260507111446 | 50 | 16 | 0.0 | 0.0 | 0.00 | 0.00 | 0.00 | 84 | 1015.6 |
| 20260507110942 | 50 | 17 | 0.0 | 0.0 | 0.00 | 0.00 | 0.00 | 85 | 1015.3 |
| 20260507110439 | 50 | 17 | 0.0 | 0.0 | 0.00 | 0.00 | 0.00 | 86 | 1015.3 |
| 20260507105935 | 50 | 17 | 0.0 | 0.0 | 0.00 | 0.00 | 0.00 | 85 | 1015.2 |
| 20260507105432 | 50 | 17 | 0.0 | 0.0 | 0.00 | 0.00 | 0.00 | 83 | 1014.8 |
| 20260507104929 | 49 | 17 | 0.0 | 0.0 | 0.00 | 0.00 | 0.00 | 82 | 1015.0 |
| 20260507104426 | 50 | 17 | 0.0 | 0.0 | 0.00 | 0.00 | 0.00 | 84 | 1015.1 |
| 20260507103921 | 50 | 17 | 0.0 | 0.0 | 0.00 | 0.00 | 0.00 | 85 | 1014.8 |
| 20260507103418 | 50 | 45 | 0.0 | 0.0 | 0.00 | 0.00 | 0.00 | 82 | 1014.8 |
| 20260507102914 | 50 | 40 | 0.0 | 0.0 | 0.00 | 0.00 | 0.00 | 82 | 1014.8 |
| 20260507102411 | 49 | 32 | 0.0 | 0.0 | 0.00 | 0.00 | 0.00 | 82 | 1014.7 |
| 20260507101908 | 50 | 13 | 0.0 | 0.0 | 0.00 | 0.00 | 0.00 | 84 | 1014.6 |
| 20260507101403 | 49 | 17 | 0.0 | 0.0 | 0.00 | 0.00 | 0.00 | 84 | 1014.4 |
| 20260507100900 | 50 | 18 | 0.0 | 0.0 | 0.00 | 0.00 | 0.00 | 84 | 1014.4 |
| 20260507100357 | 50 | 54 | 0.0 | 0.0 | 0.00 | 0.00 | 0.00 | 83 | 1014.4 |
| 20260507095855 | 50 | 16 | 0.0 | 0.0 | 0.00 | 0.00 | 0.00 | 84 | 1014.4 |
| 20260507095352 | 50 | 16 | 0.0 | 0.0 | 0.00 | 0.00 | 0.00 | 83 | 1014.4 |
| 20260507094849 | 50 | 42 | 0.0 | 0.0 | 0.00 | 0.00 | 0.00 | 83 | 1014.4 |
| 20260507094345 | 50 | 3 | 0.0 | 0.0 | 0.00 | 0.00 | 0.00 | 80 | 1014.6 |
| 20260507093843 | 50 | 355 | 0.0 | 0.0 | 0.00 | 0.00 | 0.00 | 79 | 1014.5 |
| 20260507093341 | 51 | 355 | 0.0 | 0.0 | 0.00 | 0.00 | 0.00 | 80 | 1014.5 |
| 20260507092839 | 51 | 355 | 1.0 | 1.0 | 0.00 | 0.00 | 0.00 | 75 | 1014.4 |
| 20260507092334 | 51 | 13 | 1.0 | 2.0 | 0.00 | 0.00 | 0.00 | 73 | 1014.4 |
| 20260507091831 | 51 | 3 | 1.0 | 2.0 | 0.00 | 0.00 | 0.00 | 71 | 1014.4 |
| 20260507091328 | 51 | 11 | 2.0 | 3.0 | 0.00 | 0.00 | 0.00 | 73 | 1014.3 |
| 20260507090823 | 51 | 356 | 1.0 | 2.0 | 0.00 | 0.00 | 0.00 | 78 | 1014.4 |
| 20260507090320 | 51 | 12 | 1.0 | 2.0 | 0.00 | 0.00 | 0.00 | 75 | 1014.2 |
| 20260507085817 | 51 | 10 | 1.0 | 1.0 | 0.00 | 0.00 | 0.00 | 76 | 1014.4 |
| 20260507085314 | 51 | 11 | 1.0 | 1.0 | 0.00 | 0.00 | 0.00 | 76 | 1014.3 |
| 20260507084811 | 52 | 37 | 0.0 | 1.0 | 0.00 | 0.00 | 0.00 | 77 | 1014.4 |
| 20260507084307 | 52 | 49 | 1.0 | 2.0 | 0.00 | 0.00 | 0.00 | 77 | 1014.2 |
| 20260507083805 | 52 | 54 | 0.0 | 1.0 | 0.00 | 0.00 | 0.00 | 78 | 1014.3 |
| 20260507083301 | 52 | 56 | 1.0 | 2.0 | 0.00 | 0.00 | 0.00 | 75 | 1014.2 |
| 20260507082757 | 52 | 45 | 2.0 | 2.0 | 0.00 | 0.00 | 0.00 | 76 | 1014.0 |
| 20260507082253 | 53 | 28 | 2.0 | 3.0 | 0.00 | 0.00 | 0.00 | 77 | 1014.1 |
| 20260507081750 | 53 | 3 | 1.0 | 2.0 | 0.00 | 0.00 | 0.00 | 76 | 1014.2 |
| 20260507081246 | 53 | 28 | 2.0 | 2.0 | 0.00 | 0.00 | 0.00 | 77 | 1014.2 |
| 20260507080743 | 53 | 350 | 1.0 | 2.0 | 0.00 | 0.00 | 0.00 | 80 | 1014.3 |
| 20260507080239 | 53 | 5 | 0.0 | 0.0 | 0.00 | 0.00 | 0.00 | 82 | 1014.0 |
| 20260507075735 | 53 | 2 | 0.0 | 1.0 | 0.00 | 0.00 | 0.00 | 83 | 1014.2 |
| 20260507075231 | 53 | 4 | 1.0 | 1.0 | 0.00 | 0.00 | 0.00 | 83 | 1014.2 |
| 20260507074727 | 52 | 17 | 1.0 | 2.0 | 0.00 | 0.00 | 0.00 | 81 | 1014.1 |
| 20260507074226 | 53 | 10 | 0.0 | 0.0 | 0.00 | 0.00 | 0.00 | 86 | 1014.0 |
| 20260507073722 | 53 | 10 | 0.0 | 0.0 | 0.00 | 0.00 | 0.00 | 85 | 1014.1 |
| 20260507073219 | 53 | 10 | 0.0 | 0.0 | 0.00 | 0.00 | 0.00 | 85 | 1014.1 |
| 20260507072717 | 53 | 10 | 0.0 | 0.0 | 0.00 | 0.00 | 0.00 | 81 | 1014.0 |
| 20260507072214 | 53 | 7 | 0.0 | 1.0 | 0.00 | 0.00 | 0.00 | 81 | 1013.8 |
| 20260507071711 | 53 | 5 | 1.0 | 2.0 | 0.00 | 0.00 | 0.00 | 82 | 1013.7 |
| 20260507071207 | 53 | 28 | 2.0 | 3.0 | 0.00 | 0.00 | 0.00 | 82 | 1013.9 |
| 20260507070705 | 52 | 35 | 0.0 | 2.0 | 0.00 | 0.00 | 0.00 | 89 | 1013.9 |
| 20260507070201 | 52 | 19 | 1.0 | 1.0 | 0.00 | 0.00 | 0.00 | 90 | 1013.8 |
| 20260507065657 | 52 | 19 | 1.0 | 1.0 | 0.00 | 0.00 | 0.00 | 91 | 1013.9 |
| 20260507065155 | 52 | 38 | 0.0 | 0.0 | 0.00 | 0.00 | 0.00 | 91 | 1014.1 |
| 20260507064652 | 52 | 38 | 0.0 | 0.0 | 0.00 | 0.00 | 0.00 | 91 | 1014.0 |
| 20260507064150 | 52 | 38 | 0.0 | 0.0 | 0.00 | 0.00 | 0.00 | 90 | 1014.1 |
| 20260507063648 | 52 | 38 | 0.0 | 0.0 | 0.00 | 0.00 | 0.00 | 91 | 1014.2 |
| 20260507063144 | 53 | 43 | 0.0 | 0.0 | 0.00 | 0.00 | 0.00 | 91 | 1014.0 |
| 20260507062641 | 53 | 59 | 0.0 | 0.0 | 0.00 | 0.00 | 0.00 | 90 | 1014.1 |
| 20260507062139 | 53 | 126 | 0.0 | 0.0 | 0.00 | 0.00 | 0.00 | 88 | 1014.1 |
| 20260507061637 | 53 | 139 | 0.0 | 0.0 | 0.00 | 0.00 | 0.00 | 88 | 1014.2 |
| 20260507061134 | 53 | 139 | 0.0 | 0.0 | 0.00 | 0.00 | 0.00 | 88 | 1014.2 |
| 20260507060632 | 53 | 139 | 0.0 | 0.0 | 0.00 | 0.00 | 0.00 | 87 | 1014.4 |
| 20260507060128 | 53 | 139 | 0.0 | 0.0 | 0.00 | 0.00 | 0.00 | 87 | 1014.3 |
| 20260507055624 | 53 | 139 | 0.0 | 0.0 | 0.00 | 0.00 | 0.00 | 86 | 1014.2 |
| 20260507055120 | 53 | 139 | 0.0 | 0.0 | 0.00 | 0.00 | 0.00 | 86 | 1014.3 |
| 20260507054616 | 53 | 180 | 0.0 | 0.0 | 0.00 | 0.00 | 0.00 | 86 | 1014.5 |
| 20260507054113 | 53 | 243 | 0.0 | 0.0 | 0.00 | 0.00 | 0.00 | 88 | 1014.4 |
| 20260507053611 | 53 | 243 | 0.0 | 0.0 | 0.00 | 0.00 | 0.00 | 87 | 1014.3 |
| 20260507053110 | 53 | 243 | 0.0 | 0.0 | 0.00 | 0.00 | 0.00 | 88 | 1014.4 |
| 20260507052607 | 53 | 243 | 0.0 | 1.0 | 0.00 | 0.00 | 0.00 | 87 | 1014.2 |
| 20260507052103 | 53 | 236 | 0.0 | 0.0 | 0.00 | 0.00 | 0.00 | 87 | 1014.4 |
| 20260507051601 | 53 | 149 | 0.0 | 0.0 | 0.00 | 0.00 | 0.00 | 87 | 1014.2 |
| 20260507051058 | 54 | 149 | 0.0 | 0.0 | 0.00 | 0.00 | 0.00 | 85 | 1014.1 |
| 20260507050554 | 53 | 129 | 0.0 | 0.0 | 0.00 | 0.00 | 0.00 | 83 | 1014.3 |
| 20260507050051 | 53 | 129 | 0.0 | 0.0 | 0.00 | 0.00 | 0.00 | 85 | 1014.2 |
| 20260507045548 | 53 | 96 | 0.0 | 0.0 | 0.00 | 0.00 | 0.00 | 86 | 1014.2 |
| 20260507045045 | 54 | 96 | 0.0 | 0.0 | 0.00 | 0.00 | 0.00 | 84 | 1014.2 |
| 20260507044541 | 54 | 34 | 0.0 | 0.0 | 0.00 | 0.00 | 0.00 | 81 | 1014.0 |
| 20260507044039 | 53 | 8 | 0.0 | 0.0 | 0.00 | 0.00 | 0.00 | 82 | 1014.2 |
| 20260507043534 | 54 | 8 | 0.0 | 0.0 | 0.00 | 0.00 | 0.00 | 84 | 1014.1 |
| 20260507043032 | 54 | 8 | 0.0 | 0.0 | 0.00 | 0.00 | 0.00 | 82 | 1014.3 |
| 20260507042527 | 54 | 8 | 0.0 | 0.0 | 0.00 | 0.00 | 0.00 | 81 | 1014.0 |
| 20260507042024 | 55 | 8 | 0.0 | 2.0 | 0.00 | 0.00 | 0.00 | 77 | 1014.3 |
| 20260507041521 | 54 | 109 | 0.0 | 1.0 | 0.00 | 0.00 | 0.00 | 77 | 1014.5 |
| 20260507041017 | 54 | 127 | 2.0 | 3.0 | 0.00 | 0.00 | 0.00 | 79 | 1014.3 |
| 20260507040514 | 54 | 105 | 1.0 | 2.0 | 0.00 | 0.00 | 0.00 | 83 | 1014.3 |
| 20260507040009 | 54 | 92 | 1.0 | 2.0 | 0.00 | 0.00 | 0.00 | 78 | 1014.2 |
| 20260507035506 | 54 | 195 | 0.0 | 0.0 | 0.00 | 0.00 | 0.00 | 79 | 1014.1 |
| 20260507035002 | 54 | 326 | 3.0 | 4.0 | 0.00 | 0.00 | 0.00 | 77 | 1014.3 |
| 20260507034459 | 54 | 300 | 0.0 | 2.0 | 0.00 | 0.00 | 0.00 | 79 | 1014.1 |
| 20260507033957 | 54 | 284 | 1.0 | 1.0 | 0.00 | 0.00 | 0.00 | 79 | 1014.4 |
| 20260507033455 | 54 | 214 | 0.0 | 1.0 | 0.00 | 0.00 | 0.00 | 78 | 1014.1 |
| 20260507032952 | 54 | 253 | 2.0 | 3.0 | 0.00 | 0.00 | 0.00 | 78 | 1014.6 |
| 20260507032449 | 54 | 245 | 2.0 | 2.0 | 0.00 | 0.00 | 0.00 | 78 | 1014.4 |
| 20260507031945 | 54 | 254 | 3.0 | 3.0 | 0.00 | 0.00 | 0.00 | 78 | 1014.4 |
| 20260507031441 | 55 | 222 | 0.0 | 2.0 | 0.00 | 0.00 | 0.00 | 78 | 1014.3 |
| 20260507030938 | 55 | 339 | 7.0 | 8.0 | 0.00 | 0.00 | 0.00 | 77 | 1013.6 |
| 20260507030435 | 55 | 98 | 3.0 | 3.0 | 0.00 | 0.00 | 0.00 | 78 | 1013.7 |
| 20260507025932 | 55 | 320 | 2.0 | 2.0 | 0.00 | 0.00 | 0.00 | 78 | 1014.3 |
| 20260507025430 | 55 | 302 | 1.0 | 3.0 | 0.00 | 0.00 | 0.00 | 79 | 1014.3 |
| 20260507024927 | 55 | 323 | 5.0 | 7.0 | 0.00 | 0.00 | 0.00 | 80 | 1014.4 |
| 20260507024424 | 55 | 358 | 6.0 | 8.0 | 0.00 | 0.00 | 0.00 | 80 | 1014.2 |
| 20260507023920 | 55 | 0 | 4.0 | 6.0 | 0.00 | 0.00 | 0.00 | 79 | 1014.3 |
| 20260507023417 | 55 | 29 | 3.0 | 7.0 | 0.00 | 0.00 | 0.00 | 79 | 1014.2 |
| 20260507022914 | 55 | 38 | 3.0 | 14.0 | 0.00 | 0.00 | 0.00 | 80 | 1014.0 |
| 20260507022411 | 56 | 308 | 6.0 | 9.0 | 0.00 | 0.00 | 0.00 | 80 | 1014.0 |
| 20260507021907 | 56 | 345 | 6.0 | 9.0 | 0.00 | 0.00 | 0.00 | 82 | 1014.0 |
| 20260507021408 | 56 | 17 | 3.0 | 7.0 | 0.00 | 0.00 | 0.00 | 83 | 1013.4 |
| 20260507020906 | 56 | 326 | 6.0 | 7.0 | 0.00 | 0.00 | 0.00 | 82 | 1013.3 |
| 20260507020402 | 56 | 321 | 2.0 | 4.0 | 0.00 | 0.00 | 0.00 | 83 | 1013.5 |
| 20260507015859 | 56 | 347 | 5.0 | 6.0 | 0.00 | 0.00 | 0.00 | 83 | 1013.5 |
| 20260507015357 | 56 | 333 | 5.0 | 8.0 | 0.00 | 0.00 | 0.00 | 84 | 1013.2 |
| 20260507014854 | 56 | 336 | 1.0 | 2.0 | 0.00 | 0.00 | 0.00 | 85 | 1013.6 |
| 20260507014350 | 56 | 340 | 0.0 | 1.0 | 0.00 | 0.00 | 0.00 | 85 | 1013.9 |
| 20260507013847 | 56 | 331 | 1.0 | 2.0 | 0.00 | 0.00 | 0.00 | 84 | 1013.9 |
| 20260507013344 | 56 | 338 | 3.0 | 3.0 | 0.00 | 0.00 | 0.00 | 84 | 1013.7 |
| 20260507012841 | 56 | 12 | 2.0 | 4.0 | 0.00 | 0.00 | 0.00 | 83 | 1013.5 |
| 20260507012337 | 57 | 351 | 4.0 | 7.0 | 0.00 | 0.00 | 0.00 | 83 | 1013.5 |
| 20260507011835 | 57 | 343 | 4.0 | 8.0 | 0.00 | 0.00 | 0.00 | 83 | 1013.1 |
| 20260507011332 | 57 | 334 | 4.0 | 9.0 | 0.00 | 0.00 | 0.00 | 83 | 1013.7 |
| 20260507010831 | 57 | 355 | 4.0 | 4.0 | 0.00 | 0.00 | 0.00 | 83 | 1013.4 |
| 20260507010327 | 57 | 340 | 2.0 | 3.0 | 0.00 | 0.00 | 0.00 | 81 | 1013.5 |
| 20260507005825 | 57 | 312 | 1.0 | 2.0 | 0.00 | 0.00 | 0.00 | 81 | 1013.1 |
| 20260507005321 | 57 | 255 | 1.0 | 3.0 | 0.00 | 0.00 | 0.00 | 81 | 1013.5 |
| 20260507004818 | 58 | 264 | 0.0 | 1.0 | 0.00 | 0.00 | 0.00 | 82 | 1013.4 |
| 20260507004315 | 58 | 225 | 1.0 | 1.0 | 0.00 | 0.00 | 0.00 | 80 | 1013.2 |
| 20260507003812 | 58 | 225 | 0.0 | 2.0 | 0.00 | 0.00 | 0.00 | 78 | 1013.1 |
| 20260507003307 | 58 | 297 | 0.0 | 0.0 | 0.00 | 0.00 | 0.00 | 79 | 1013.4 |
| 20260507002757 | 58 | 335 | 0.0 | 0.0 | 0.00 | 0.00 | 0.00 | 80 | 1013.4 |
| 20260507002253 | 58 | 280 | 0.0 | 2.0 | 0.00 | 0.00 | 0.00 | 80 | 1013.7 |
| 20260507001750 | 58 | 334 | 1.0 | 3.0 | 0.00 | 0.00 | 0.00 | 79 | 1013.8 |
| 20260507001248 | 58 | 259 | 1.0 | 1.0 | 0.00 | 0.00 | 0.00 | 80 | 1013.7 |
| 20260507000744 | 58 | 307 | 1.0 | 2.0 | 0.00 | 0.00 | 0.00 | 80 | 1013.4 |
| 20260507000240 | 59 | 279 | 1.0 | 3.0 | 0.00 | 0.00 | 0.00 | 80 | 1013.2 |
| 20260506235736 | 59 | 12 | 2.0 | 4.0 | 0.00 | 0.00 | 0.00 | 79 | 1013.2 |
| 20260506235233 | 59 | 321 | 2.0 | 2.0 | 0.00 | 0.00 | 0.00 | 79 | 1013.2 |
| 20260506234730 | 59 | 313 | 0.0 | 2.0 | 0.00 | 0.00 | 0.00 | 80 | 1013.2 |
| 20260506234227 | 59 | 333 | 1.0 | 3.0 | 0.00 | 0.00 | 0.00 | 79 | 1013.3 |
| 20260506233725 | 59 | 274 | 1.0 | 2.0 | 0.00 | 0.00 | 0.00 | 80 | 1013.1 |
| 20260506233221 | 60 | 238 | 2.0 | 3.0 | 0.00 | 0.00 | 0.00 | 79 | 1012.9 |
| 20260506232718 | 60 | 321 | 2.0 | 3.0 | 0.00 | 0.00 | 0.00 | 79 | 1012.9 |
| 20260506232218 | 60 | 316 | 1.0 | 2.0 | 0.00 | 0.00 | 0.00 | 79 | 1013.0 |
| 20260506231715 | 60 | 302 | 2.0 | 3.0 | 0.00 | 0.00 | 0.00 | 79 | 1012.9 |
| 20260506231214 | 60 | 354 | 1.0 | 3.0 | 0.00 | 0.00 | 0.00 | 79 | 1012.3 |
| 20260506230710 | 60 | 352 | 3.0 | 4.0 | 0.00 | 0.00 | 0.00 | 79 | 1012.5 |
| 20260506230207 | 61 | 342 | 2.0 | 3.0 | 0.00 | 0.00 | 0.00 | 78 | 1012.2 |
| 20260506225703 | 61 | 318 | 0.0 | 3.0 | 0.00 | 0.00 | 0.00 | 77 | 1012.2 |
| 20260506225200 | 61 | 355 | 3.0 | 4.0 | 0.00 | 0.00 | 0.00 | 75 | 1012.0 |
| 20260506224657 | 62 | 313 | 1.0 | 2.0 | 0.00 | 0.00 | 0.00 | 77 | 1012.3 |
| 20260506224154 | 62 | 219 | 2.0 | 3.0 | 0.00 | 0.00 | 0.00 | 76 | 1012.3 |
| 20260506223650 | 62 | 260 | 1.0 | 4.0 | 0.00 | 0.00 | 0.00 | 77 | 1012.3 |
| 20260506223146 | 62 | 325 | 2.0 | 3.0 | 0.00 | 0.00 | 0.00 | 76 | 1012.3 |
| 20260506222643 | 62 | 262 | 1.0 | 2.0 | 0.00 | 0.00 | 0.00 | 77 | 1012.1 |
| 20260506222139 | 62 | 288 | 0.0 | 2.0 | 0.00 | 0.00 | 0.00 | 76 | 1012.0 |
| 20260506221637 | 63 | 349 | 4.0 | 4.0 | 0.00 | 0.00 | 0.00 | 76 | 1012.0 |
| 20260506221135 | 63 | 347 | 2.0 | 6.0 | 0.00 | 0.00 | 0.00 | 76 | 1012.0 |
| 20260506220631 | 62 | 267 | 4.0 | 7.0 | 0.00 | 0.00 | 0.00 | 74 | 1011.7 |
| 20260506220126 | 62 | 266 | 2.0 | 3.0 | 0.00 | 0.00 | 0.00 | 77 | 1011.8 |
| 20260506215623 | 63 | 268 | 5.0 | 6.0 | 0.00 | 0.00 | 0.00 | 77 | 1011.8 |
| 20260506215118 | 63 | 314 | 4.0 | 4.0 | 0.00 | 0.00 | 0.00 | 77 | 1011.7 |
| 20260506214616 | 63 | 301 | 2.0 | 4.0 | 0.00 | 0.00 | 0.00 | 77 | 1011.6 |
| 20260506214113 | 63 | 283 | 2.0 | 4.0 | 0.00 | 0.00 | 0.00 | 77 | 1011.4 |
| 20260506213611 | 63 | 258 | 5.0 | 7.0 | 0.00 | 0.00 | 0.00 | 77 | 1011.4 |
| 20260506213108 | 64 | 266 | 1.0 | 6.0 | 0.00 | 0.00 | 0.00 | 77 | 1011.2 |
| 20260506212605 | 65 | 232 | 2.0 | 4.0 | 0.00 | 0.00 | 0.00 | 77 | 1011.3 |
| 20260506212100 | 65 | 316 | 6.0 | 7.0 | 0.00 | 0.00 | 0.00 | 76 | 1010.9 |
| 20260506211556 | 65 | 320 | 4.0 | 6.0 | 0.00 | 0.00 | 0.00 | 76 | 1010.9 |
| 20260506211053 | 65 | 331 | 4.0 | 6.0 | 0.00 | 0.00 | 0.00 | 77 | 1010.8 |
| 20260506210550 | 65 | 319 | 5.0 | 8.0 | 0.00 | 0.00 | 0.00 | 76 | 1010.8 |
| 20260506210046 | 64 | 333 | 6.0 | 8.0 | 0.00 | 0.00 | 0.00 | 77 | 1010.5 |
| 20260506205543 | 64 | 296 | 2.0 | 3.0 | 0.00 | 0.00 | 0.00 | 78 | 1010.5 |
| 20260506205038 | 65 | 327 | 2.0 | 3.0 | 0.00 | 0.00 | 0.00 | 80 | 1010.6 |
| 20260506204537 | 65 | 287 | 0.0 | 3.0 | 0.00 | 0.00 | 0.00 | 79 | 1010.3 |
| 20260506204033 | 65 | 287 | 0.0 | 3.0 | 0.00 | 0.00 | 0.00 | 79 | 1010.3 |
| 20260506203532 | 65 | 262 | 4.0 | 8.0 | 0.00 | 0.00 | 0.00 | 78 | 1010.3 |
| 20260506203028 | 65 | 280 | 1.0 | 6.0 | 0.00 | 0.00 | 0.00 | 80 | 1010.2 |
| 20260506202525 | 65 | 334 | 2.0 | 3.0 | 0.00 | 0.00 | 0.00 | 79 | 1010.2 |
| 20260506202021 | 65 | 284 | 3.0 | 6.0 | 0.00 | 0.00 | 0.00 | 80 | 1010.1 |
| 20260506201520 | 65 | 293 | 0.0 | 4.0 | 0.00 | 0.00 | 0.00 | 81 | 1010.3 |